Wind_Speed
14 13 12 10 10 14 14 10 8 5 6 9 11 13 12 12 12 13 12 13 12 9 7 7 8 11 11 12 11 9 9 10 10
12 12 12 13 12 10 12 13 11 8 7 9 10 12 13 13 13 14 15 14 12 11 9 9 9 11 12 12 10 10 11 11 10
10 12 14 15 15 11 11 11 9 7 9 11 11 13 15 15 16 15 15 14 14 13 12 11 12 12 13 12 11 12 12 11 11
12 12 13 16 17 17 14 13 10 7 9 11 12 14 15 17 17 16 13 16 16 16 15 15 14 14 14 14 13 14 12 12 12
18 16 16 16 18 20 21 18 16 14 10 10 13 16 16 18 16 14 16 18 18 18 18 17 16 16 16 16 16 16 15 13 14
22 21 20 20 21 21 24 25 21 18 16 12 12 15 18 19 17 16 17 18 18 18 19 19 17 17 17 18 19 17 16 15 16
26 27 24 22 24 24 24 29 27 24 20 14 14 13 17 19 18 17 19 18 18 18 20 19 19 20 19 19 21 19 18 16 17
26 29 30 29 26 28 27 26 33 30 25 18 16 16 17 16 18 20 19 18 17 16 17 20 21 22 21 21 22 19 19 19 18
28 29 30 32 33 30 29 29 29 29 31 22 18 18 17 17 19 21 20 17 13 11 16 16 18 21 22 23 22 20 20 19 20
30 30 30 31 33 33 33 31 31 28 33 28 37 20 18 16 17 20 20 20 16 19 21 21 19 21 22 23 23 23 22 21 22
32 32 31 32 33 34 34 32 33 32 32 29 31 32 28 26 23 19 20 22 23 20 22 19 20 18 21 22 24 25 25 24 26
37 33 32 32 33 34 31 33 31 31 32 31 33 27 30 35 30 25 22 23 26 25 25 21 20 20 22 23 24 26 27 26 28
33 39 37 35 33 38 39 43 34 29 34 33 36 35 34 35 32 26 25 26 31 33 32 29 24 23 22 25 24 26 26 27 29
37 35 38 35 40 34 28 33 36 43 38 33 29 32 34 37 35 30 28 26 29 35 37 35 35 30 25 25 26 25 27 27 29
33 35 35 40 38 33 31 31 34 32 32 32 36 38 39 38 38 32 32 30 28 29 39 43 41 40 35 30 28 29 26 29 29
28 30 32 39 40 42 36 40 31 37 30 33 42 42 40 39 39 38 37 36 32 30 28 33 41 47 45 42 37 34 33 27 27
31 33 32 34 39 40 39 40 34 45 40 41 39 45 43 45 44 40 36 39 37 35 29 28 30 34 41 46 47 43 41 40 36
30 32 33 35 38 40 43 43 39 47 36 45 50 48 52 51 52 46 40 40 39 42 37 32 29 31 34 38 42 49 46 45 44
30 32 34 34 36 40 42 46 46 46 49 40 47 48 52 60 53 51 45 40 40 37 36 35 32 31 31 33 38 40 43 46 43
22 30 34 34 35 38 41 42 45 47 44 47 40 37 56 61 59 55 50 45 44 43 43 41 36 34 31 28 32 36 37 38 37
Wind_Direction
238 244 252 228 216 215 224 216 197 201 206 196 206 212 204 198 193 195 195 200 202 202 200 201 195 193 195 196 196 196 200 207 198
258 243 234 233 219 221 217 209 202 207 217 205 208 214 214 212 212 211 216 222 217 217 217 219 214 206 203 202 202 202 207 209 201
245 251 240 226 223 213 191 183 185 197 221 217 214 224 229 229 228 223 225 234 236 234 230 231 221 214 211 206 205 212 215 212 199
225 240 239 231 225 221 217 204 195 211 223 233 225 230 233 236 234 231 233 237 237 238 237 232 226 219 214 212 209 220 217 212 204
236 232 223 235 236 236 229 227 216 217 237 237 235 236 240 245 243 240 236 237 238 235 237 238 223 221 218 217 216 219 218 208 204
243 239 234 223 232 241 239 234 229 234 231 238 244 242 242 246 245 242 246 247 247 244 240 235 231 228 225 222 221 221 218 209 202
243 240 241 236 235 234 242 237 238 240 233 226 240 243 245 248 249 247 249 253 255 251 247 235 226 230 229 229 228 223 222 214 209
243 245 246 248 241 239 235 240 242 244 233 223 224 243 254 255 252 248 246 250 257 258 235 237 231 228 228 232 234 230 227 215 213
238 245 249 251 250 244 248 244 250 244 245 238 233 244 249 259 254 253 242 241 234 240 229 245 243 232 231 231 234 233 232 228 219
234 240 246 250 252 251 248 247 248 253 240 251 252 259 259 263 261 259 249 238 225 226 236 251 260 243 232 235 233 231 233 227 229
238 235 241 249 253 254 247 249 249 248 236 233 246 243 260 265 268 269 260 242 233 225 236 246 255 254 243 238 235 234 233 229 229
238 239 239 243 251 258 239 242 238 240 240 235 240 243 266 259 261 264 257 239 235 237 230 233 243 255 257 249 238 236 233 232 233
242 239 239 245 251 254 248 249 240 236 239 243 235 251 250 252 254 256 252 247 234 232 225 222 231 240 250 258 256 247 238 233 235
240 242 241 244 246 255 258 245 256 238 232 241 244 247 252 260 260 251 247 244 240 232 226 229 230 232 238 247 260 251 244 240 238
248 244 243 241 244 250 254 271 243 246 239 246 247 244 252 257 260 255 254 248 243 239 234 230 231 232 229 236 243 255 258 248 242
251 252 250 247 248 249 249 249 260 249 243 260 262 247 249 251 249 249 257 245 241 239 240 242 237 236 238 235 236 246 255 252 252
255 253 253 249 248 251 251 248 256 253 263 252 251 244 246 246 246 249 246 248 248 244 241 239 239 239 239 239 236 242 246 253 255
255 256 256 254 251 248 248 247 250 251 267 242 254 239 246 242 242 241 243 244 247 247 251 249 241 242 239 240 240 238 238 244 252
259 259 262 261 258 253 250 251 252 251 256 265 241 243 251 244 245 239 237 239 246 245 249 251 251 248 243 241 240 240 239 239 239
275 265 265 266 265 260 256 254 257 256 262 255 243 265 244 248 243 244 241 241 242 244 249 250 247 246 245 242 239 240 242 241 239
Height
3162 3164 3164 3165 3166 3166 3166 3167 3168 3169 3170 3171 3171 3172 3173 3175 3176 3177 3177 3178 3179 3179 3180 3181 3182 3183 3183 3184 3186 3187 3187 3187 3188
3160 3161 3162 3163 3164 3164 3164 3165 3168 3169 3168 3169 3170 3171 3171 3173 3175 3176 3177 3177 3178 3179 3180 3180 3181 3181 3182 3184 3185 3186 3186 3188 3189
3157 3159 3160 3160 3162 3162 3162 3164 3165 3167 3167 3167 3168 3169 3170 3171 3172 3174 3175 3176 3177 3177 3178 3179 3179 3180 3181 3182 3183 3185 3186 3187 3189
3153 3156 3158 3158 3159 3160 3161 3162 3163 3164 3165 3166 3166 3166 3167 3168 3170 3172 3173 3174 3175 3176 3176 3178 3178 3178 3179 3180 3182 3183 3185 3187 3188
3151 3151 3152 3156 3157 3158 3159 3160 3161 3162 3163 3163 3164 3164 3164 3164 3168 3169 3170 3170 3172 3173 3174 3175 3176 3177 3178 3179 3180 3182 3183 3185 3187
3147 3148 3149 3150 3152 3154 3156 3157 3158 3159 3160 3161 3161 3161 3161 3162 3164 3166 3166 3167 3168 3169 3171 3172 3174 3175 3176 3177 3178 3180 3181 3183 3185
3144 3144 3145 3146 3148 3149 3152 3154 3155 3156 3157 3157 3158 3159 3158 3159 3160 3162 3162 3164 3165 3166 3166 3169 3171 3171 3173 3175 3176 3177 3178 3180 3182
3140 3141 3142 3142 3143 3145 3146 3148 3150 3152 3153 3152 3153 3155 3156 3156 3157 3158 3159 3160 3161 3162 3162 3164 3166 3168 3170 3171 3173 3175 3176 3178 3179
3134 3135 3136 3137 3138 3140 3142 3143 3144 3144 3149 3144 3149 3151 3152 3153 3153 3154 3155 3156 3158 3160 3161 3162 3163 3165 3166 3168 3169 3171 3173 3175 3176
3127 3128 3130 3131 3132 3134 3136 3138 3139 3141 3142 3143 3146 3148 3149 3149 3149 3150 3152 3154 3156 3157 3158 3159 3159 3160 3162 3163 3165 3167 3169 3171 3173
3120 3121 3123 3125 3126 3126 3128 3131 3134 3135 3137 3139 3140 3142 3145 3146 3146 3146 3148 3150 3152 3154 3155 3156 3156 3157 3158 3159 3160 3163 3165 3168 3169
3112 3114 3116 3118 3119 3119 3119 3123 3126 3127 3130 3132 3134 3133 3137 3140 3141 3142 3143 3144 3146 3149 3150 3152 3153 3153 3154 3156 3156 3158 3161 3163 3165
3103 3106 3108 3110 3112 3111 3111 3113 3117 3120 3123 3125 3127 3128 3130 3131 3134 3135 3136 3138 3140 3143 3146 3148 3149 3150 3151 3152 3153 3153 3155 3158 3160
3097 3099 3101 3103 3103 3093 3102 3099 3106 3108 3113 3117 3120 3122 3123 3124 3126 3128 3129 3131 3133 3136 3139 3142 3144 3145 3146 3148 3148 3148 3151 3152 3154
3090 3092 3093 3095 3096 3097 3097 3096 3098 3103 3105 3108 3111 3113 3115 3116 3116 3118 3120 3123 3126 3129 3131 3133 3137 3139 3140 3143 3144 3144 3145 3147 3148
3082 3084 3086 3087 3088 3090 3091 3092 3083 3094 3096 3099 3101 3102 3105 3107 3109 3113 3112 3114 3118 3121 3123 3126 3128 3131 3133 3136 3138 3139 3139 3142 3143
3075 3076 3077 3078 3080 3082 3084 3087 3087 3084 3088 3089 3092 3092 3095 3095 3098 3102 3105 3105 3109 3112 3115 3117 3121 3122 3124 3127 3130 3133 3134 3134 3137
3067 3067 3068 3069 3071 3073 3075 3077 3078 3077 3076 3076 3081 3081 3080 3086 3090 3093 3097 3099 3100 3103 3107 3110 3112 3114 3115 3117 3119 3122 3125 3127 3128
3058 3059 3060 3061 3062 3063 3065 3066 3069 3071 3071 3070 3062 3071 3072 3074 3077 3083 3087 3090 3092 3095 3097 3101 3103 3105 3106 3108 3109 3112 3115 3118 3120
3050 3050 3051 3052 3053 3053 3054 3057 3058 3060 3061 3063 3058 3056 3062 3060 3065 3069 3075 3079 3082 3086 3089 3092 3094 3095 3098 3099 3101 3103 3106 3108 3110